Flag for Iceland Weather past 2 weeks in Reykjavik, Iceland

Now
46 °F

Passing clouds.


Feels Like: 40 °F
Forecast: N/A
Wind: 15 mph from Southwest

Location: Reykjavik Airport

Current Time: Sep 22, 2014 at 8:55:53 PM

Latest Report: Sep 22, 2014 at 8:00 PM


Visibility: N/A

Pressure: 29.56 "Hg

Humidity: 82%

Dew point: 41 °F

Location of ReykjavikLocation

Historic Weather in Reykjavik — Graph

°F

Reykjavik temperature yesterday

Maximum temperature yesterday: 54 °F (at 1:00 PM)
Minimum temperature yesterday: 45 °F (at 12:00 AM)
Average temperature yesterday: 50 °F

Past Weeks' High & Low Weather Summary

 TemperatureHumidityPressure
High57 °F (Sep 14, 3:00 PM)94% (Sep 17, 8:00 PM)30.24 "Hg (Sep 17, 8:00 PM)
Low43 °F (Sep 17, 1:00 AM)54% (Sep 15, 5:00 PM)29.50 "Hg (Sep 9, 3:00 AM)
Average50 °F80%29.91 "Hg
* Reported Sep 7 8:00 PM — Sep 22 8:00 PM, Reykjavik, Weather by CustomWeather, © 2014

Note: Actual official high and low records may vary slightly from our data, if they occured in-between our weather recording intervals... More about our weather records

Advertising

Reykjavik weather history for previous 24 hours

 ConditionsComfort  
Time TempWeatherWind HumidityBarometerVisibility
8:00 PM
Sep 22
46 °FPassing clouds.15 mph82%29.56 "HgN/A
7:00 PM48 °FBroken clouds.14 mph82%29.56 "HgN/A
6:00 PM48 °FScattered showers. Broken clouds.14 mph82%29.56 "HgN/A
5:00 PM50 °FBroken clouds.13 mph76%29.56 "HgN/A
4:00 PM48 °FPartly sunny.14 mph82%29.56 "HgN/A
3:00 PM48 °FSprinkles. Broken clouds.16 mph76%29.56 "HgN/A
2:00 PM50 °FSprinkles. Broken clouds.17 mph82%29.56 "HgN/A
1:00 PM50 °FSprinkles. Broken clouds.14 mph82%29.59 "HgN/A
12:00 PM50 °FBroken clouds.14 mph76%29.59 "HgN/A
11:00 AM52 °FScattered showers. Partly sunny.10 mph77%29.59 "HgN/A
10:00 AM50 °FBroken clouds.13 mph82%29.62 "HgN/A
9:00 AM48 °FBroken clouds.8 mph87%29.62 "HgN/A
8:00 AM48 °FBroken clouds.7 mph87%29.62 "HgN/A
7:00 AM48 °FLight rain. Partly cloudy.14 mph87%29.62 "HgN/A
6:00 AM48 °FRain. Mostly cloudy.14 mph87%29.62 "Hg4 mi
5:00 AM48 °FOvercast.10 mph87%29.62 "HgN/A
4:00 AM48 °FPassing clouds.10 mph82%29.65 "HgN/A
3:00 AM46 °FMostly cloudy.7 mph87%29.68 "HgN/A
2:00 AM46 °FPassing clouds.7 mph82%29.68 "HgN/A
1:00 AM45 °FPassing clouds.8 mph87%29.71 "HgN/A
12:00 AM45 °FPassing clouds.7 mph87%29.71 "HgN/A
11:00 PM
Sep 21
45 °FPassing clouds.6 mph93%29.68 "HgN/A
10:00 PM46 °FLight rain. Mostly cloudy.6 mph87%29.68 "HgN/A
9:00 PM48 °FLight rain. Partly cloudy.9 mph87%29.68 "Hg5 mi
8:00 PM48 °FCool.20 mph94%29.65 "HgN/A
Weather by CustomWeather, © 2014

See weather overviewHow to use our weather pages